CAPE
2 0 0 0 0 0 0 0 0 0 0 0 0 0 0 0 0 0 0 0 0 0 0 0 0 0 0 0 0 0 0 0 0 0 1 2 2 2 3 3 1 5 3 6
1 1 0 0 0 0 0 0 0 0 0 0 0 0 0 0 0 0 0 0 0 0 0 0 0 0 0 0 0 0 0 0 0 0 0 3 2 3 4 5 5 7 5 5
0 0 0 0 0 0 0 0 0 0 0 0 0 0 0 0 0 0 0 0 0 0 0 0 0 0 0 0 0 0 0 0 0 0 0 2 3 5 6 8 7 12 11 12
0 0 0 0 0 0 0 0 0 0 0 0 0 0 0 0 0 0 0 0 0 0 0 0 0 0 0 0 0 0 0 0 0 0 0 0 0 1 3 7 9 11 18 20
0 0 0 0 0 0 0 0 0 0 0 0 0 0 0 0 0 0 0 0 0 0 0 0 0 0 0 0 0 0 0 0 0 0 0 1 1 1 2 7 8 11 15 19
0 0 0 0 0 0 0 0 0 0 0 0 0 0 0 0 0 0 0 0 0 0 0 0 0 0 0 0 0 0 0 0 0 0 9 2 8 1 2 2 8 13 6 0
0 0 0 0 0 0 0 0 0 0 0 0 0 0 0 0 0 0 0 0 0 0 0 0 0 0 0 0 0 0 0 0 0 0 8 5 5 0 0 2 3 1 0 0
0 0 0 0 0 0 0 0 0 0 0 0 0 0 0 0 0 0 0 0 0 0 0 0 0 0 0 0 0 0 0 0 0 0 1 2 0 0 0 0 0 0 0 0
0 0 0 0 0 0 0 0 0 0 0 0 0 0 0 0 0 0 0 0 0 0 0 0 0 0 0 0 0 0 0 0 0 0 0 0 0 0 0 0 0 0 0 0
0 0 0 0 0 0 0 0 0 0 0 0 0 0 0 0 0 0 0 0 0 0 0 0 0 0 0 0 0 0 0 0 0 0 0 0 0 0 0 0 0 0 0 0
0 0 0 0 0 0 0 0 0 0 0 0 0 0 0 0 0 0 0 0 0 0 0 0 0 0 0 0 0 0 0 0 0 0 0 0 0 0 0 0 0 0 0 0
0 0 0 0 0 0 0 0 0 0 0 0 0 0 0 0 0 0 0 0 0 0 0 0 0 0 0 0 0 0 0 0 0 0 0 0 0 0 0 0 0 0 0 0
0 0 0 0 0 0 0 0 0 0 0 0 0 0 0 0 0 0 0 0 0 0 0 0 0 0 0 0 0 0 0 0 0 0 0 0 0 0 0 0 0 0 0 0
0 0 0 0 0 0 0 0 0 0 0 0 0 0 0 0 0 0 0 0 0 0 0 0 0 0 0 0 0 0 0 0 0 0 0 0 0 0 0 0 0 0 0 0
0 0 0 0 0 0 0 0 0 0 0 0 0 0 0 0 0 0 0 0 0 0 0 0 0 0 0 0 0 0 0 0 0 0 0 0 0 0 0 0 0 0 0 0
0 0 0 0 0 0 0 0 0 0 0 0 0 0 0 0 0 0 0 0 0 0 0 0 0 0 0 0 0 0 0 0 0 0 0 0 0 0 0 0 0 0 0 0
0 0 0 0 0 0 0 0 0 0 0 0 0 0 0 0 0 0 0 0 0 0 0 0 0 0 0 0 0 0 0 0 0 0 0 0 0 0 0 0 0 0 0 0
0 0 0 0 0 0 0 0 0 0 0 0 0 0 0 0 0 0 0 0 0 0 0 0 0 0 0 0 0 0 0 0 0 0 0 0 0 0 0 0 0 0 0 0
0 0 0 0 0 0 0 0 0 0 0 0 0 0 0 0 0 0 0 0 0 0 0 0 0 0 0 0 0 0 0 0 0 0 0 0 0 0 0 0 0 0 0 0
0 0 0 0 0 0 0 0 0 0 0 0 0 0 0 0 0 0 0 0 0 0 0 0 0 0 0 0 0 0 0 0 0 0 0 0 0 0 0 0 0 0 0 0
0 0 0 0 0 0 0 0 0 0 0 0 0 0 0 0 0 0 0 0 0 0 0 0 0 0 0 0 0 0 0 0 0 0 0 0 0 0 0 0 0 0 0 0
0 0 0 0 0 0 0 0 0 0 0 0 0 0 0 0 0 0 0 0 0 0 0 0 0 0 0 0 0 0 0 0 0 0 0 0 0 0 0 0 0 0 0 0
0 0 0 0 0 0 0 0 0 0 0 0 0 0 0 0 0 0 0 0 0 0 0 0 0 0 0 0 0 0 0 0 0 0 0 0 0 0 0 0 0 0 0 0
0 0 0 0 0 0 0 0 0 0 0 0 0 0 0 0 0 0 0 0 0 0 0 0 0 0 0 0 0 0 0 0 0 0 0 0 0 0 0 0 0 0 0 0
0 0 0 0 0 0 0 0 0 0 0 0 0 0 0 0 0 0 0 0 0 0 0 0 0 0 0 0 0 0 0 0 0 0 0 0 0 0 0 0 0 0 0 0
0 0 0 0 0 0 0 0 0 0 0 0 0 0 0 0 0 0 0 0 0 0 0 0 0 0 0 0 0 0 0 0 0 0 0 0 0 0 0 0 0 0 0 0
CIN
-0 -0 -0 -0 -0 -0 -0 -0 -0 -0 -0 -0 -0 -0 -0 -0 -0 -0 -0 -0 -0 -0 -0 -0 -0 -0 -0 -0 -0 -0 -0 -0 -0 -0 -6 -7 -5 -7 -10 -9 -7 -8 -12 -10
-0 -0 -0 -0 -0 -0 -0 -0 -0 -0 -0 -0 -0 -0 -0 -0 -0 -0 -0 -0 -0 -0 -0 -0 -0 -0 -0 -0 -0 -0 -0 -0 -0 -0 -0 -6 -6 -10 -12 -12 -9 -11 -10 -13
-0 -0 -0 -0 -0 -0 -0 -0 -0 -0 -0 -0 -0 -0 -0 -0 -0 -0 -0 -0 -0 -0 -0 -0 -0 -0 -0 -0 -0 -0 -0 -0 -0 -0 -0 -5 -12 -10 -8 -7 -8 -11 -10 -10
-0 -0 -0 -0 -0 -0 -0 -0 -0 -0 -0 -0 -0 -0 -0 -0 -0 -0 -0 -0 -0 -0 -0 -0 -0 -0 -0 -0 -0 -0 -0 -0 -0 -0 -0 -0 -1 -3 -9 -12 -13 -10 -7 -4
-0 -0 -0 -0 -0 -0 -0 -0 -0 -0 -0 -0 -0 -0 -0 -0 -0 -0 -0 -0 -0 -0 -0 -0 -0 -0 -0 -0 -0 -0 -0 -0 -0 -0 -1 -35 -26 -7 -14 -8 -7 -11 -9 -6
-0 -0 -0 -0 -0 -0 -0 -0 -0 -0 -0 -0 -0 -0 -0 -0 -0 -0 -0 -0 -0 -0 -0 -0 -0 -0 -0 -0 -0 -0 -0 -0 -0 -0 -49 -39 -26 -25 -20 -10 -11 -7 -15 -23
-0 -0 -0 -0 -0 -0 -0 -0 -0 -0 -0 -0 -0 -0 -0 -0 -0 -0 -0 -0 -0 -0 -0 -0 -0 -0 -0 -0 -0 -0 -0 -0 -0 -0 -52 -42 -43 -17 -20 -23 -20 -23 -0 -0
-0 -0 -0 -0 -0 -0 -0 -0 -0 -0 -0 -0 -0 -0 -0 -0 -0 -0 -0 -0 -0 -0 -0 -0 -0 -0 -0 -0 -0 -0 -0 -0 -0 -0 -54 -67 -0 -0 -0 -0 -0 -0 -0 -0
-0 -0 -0 -0 -0 -0 -0 -0 -0 -0 -0 -0 -0 -0 -0 -0 -0 -0 -0 -0 -0 -0 -0 -0 -0 -0 -0 -0 -0 -0 -0 -0 -0 -0 -0 -0 -0 -0 -0 -0 -0 -0 -0 -0
-0 -0 -0 -0 -0 -0 -0 -0 -0 -0 -0 -0 -0 -0 -0 -0 -0 -0 -0 -0 -0 -0 -0 -0 -0 -0 -0 -0 -0 -0 -0 -0 -0 -0 -0 -0 -0 -0 -0 -0 -0 -0 -0 -0
-0 -0 -0 -0 -0 -0 -0 -0 -0 -0 -0 -0 -0 -0 -0 -0 -0 -0 -0 -0 -0 -0 -0 -0 -0 -0 -0 -0 -0 -0 -0 -0 -0 -0 -0 -0 -0 -0 -0 -0 -0 -0 -0 -0
-0 -0 -0 -0 -0 -0 -0 -0 -0 -0 -0 -0 -0 -0 -0 -0 -0 -0 -0 -0 -0 -0 -0 -0 -0 -0 -0 -0 -0 -0 -0 -0 -0 -0 -0 -0 -0 -0 -0 -0 -0 -0 -0 -0
-0 -0 -0 -0 -0 -0 -0 -0 -0 -0 -0 -0 -0 -0 -0 -0 -0 -0 -0 -0 -0 -0 -0 -0 -0 -0 -0 -0 -0 -0 -0 -0 -0 -0 -0 -0 -0 -0 -0 -0 -0 -0 -0 -0
-0 -0 -0 -0 -0 -0 -0 -0 -0 -0 -0 -0 -0 -0 -0 -0 -0 -0 -0 -0 -0 -0 -0 -0 -0 -0 -0 -0 -0 -0 -0 -0 -0 -0 -0 -0 -0 -0 -0 -0 -0 -0 -0 -0
-0 -0 -0 -0 -0 -0 -0 -0 -0 -0 -0 -0 -0 -0 -0 -0 -0 -0 -0 -0 -0 -0 -0 -0 -0 -0 -0 -0 -0 -0 -0 -0 -0 -0 -0 -0 -0 -0 -0 -0 -0 -0 -0 -0
-0 -0 -0 -0 -0 -0 -0 -0 -0 -0 -0 -0 -0 -0 -0 -0 -0 -0 -0 -0 -0 -0 -0 -0 -0 -0 -0 -0 -0 -0 -0 -0 -0 -0 -0 -0 -0 -0 -0 -0 -0 -0 -0 -0
-0 -0 -0 -0 -0 -0 -0 -0 -0 -0 -0 -0 -0 -0 -0 -0 -0 -0 -0 -0 -0 -0 -0 -0 -0 -0 -0 -0 -0 -0 -0 -0 -0 -0 -0 -0 -0 -0 -0 -0 -0 -0 -0 -0
-0 -0 -0 -0 -0 -0 -0 -0 -0 -0 -0 -0 -0 -0 -0 -0 -0 -0 -0 -0 -0 -0 -0 -0 -0 -0 -0 -0 -0 -0 -0 -0 -0 -0 -0 -0 -0 -0 -0 -0 -0 -0 -0 -0
-0 -0 -0 -0 -0 -0 -0 -0 -0 -0 -0 -0 -0 -0 -0 -0 -0 -0 -0 -0 -0 -0 -0 -0 -0 -0 -0 -0 -0 -0 -0 -0 -0 -0 -0 -0 -0 -0 -0 -0 -0 -0 -0 -0
-0 -0 -0 -0 -0 -0 -0 -0 -0 -0 -0 -0 -0 -0 -0 -0 -0 -0 -0 -0 -0 -0 -0 -0 -0 -0 -0 -0 -0 -0 -0 -0 -0 -0 -0 -0 -0 -0 -0 -0 -0 -0 -0 -0
-0 -0 -0 -0 -0 -0 -0 -0 -0 -0 -0 -0 -0 -0 -0 -0 -0 -0 -0 -0 -0 -0 -0 -0 -0 -0 -0 -0 -0 -0 -0 -0 -0 -0 -0 -0 -0 -0 -0 -0 -0 -0 -0 -0
-0 -0 -0 -0 -0 -0 -0 -0 -0 -0 -0 -0 -0 -0 -0 -0 -0 -0 -0 -0 -0 -0 -0 -0 -0 -0 -0 -0 -0 -0 -0 -0 -0 -0 -0 -0 -0 -0 -0 -0 -0 -0 -0 -0
-0 -0 -0 -0 -0 -0 -0 -0 -0 -0 -0 -0 -0 -0 -0 -0 -0 -0 -0 -0 -0 -0 -0 -0 -0 -0 -0 -0 -0 -0 -0 -0 -0 -0 -0 -0 -0 -0 -0 -0 -0 -0 -0 -0
-0 -0 -0 -0 -0 -0 -0 -0 -0 -0 -0 -0 -0 -0 -0 -0 -0 -0 -0 -0 -0 -0 -0 -0 -0 -0 -0 -0 -0 -0 -0 -0 -0 -0 -0 -0 -0 -0 -0 -0 -0 -0 -0 -0
-0 -0 -0 -0 -0 -0 -0 -0 -0 -0 -0 -0 -0 -0 -0 -0 -0 -0 -0 -0 -0 -0 -0 -0 -0 -0 -0 -0 -0 -0 -0 -0 -0 -0 -0 -0 -0 -0 -0 -0 -0 -0 -0 -0
-0 -0 -0 -0 -0 -0 -0 -0 -0 -0 -0 -0 -0 -0 -0 -0 -0 -0 -0 -0 -0 -0 -0 -0 -0 -0 -0 -0 -0 -0 -0 -0 -0 -0 -0 -0 -0 -0 -0 -0 -0 -0 -0 -0
Wind_Speed
29 41 48 41 42 41 36 34 35 30 28 28 30 29 23 24 28 28 33 34 34 38 39 38 38 36 32 22 15 15 13 11 7 3 1 1 2 1 4 6 6 6 8 10
34 60 53 38 38 41 36 39 36 29 29 31 33 35 29 28 32 32 36 37 36 34 34 31 26 20 14 14 13 10 11 10 8 5 2 4 3 6 4 4 5 6 8 10
40 49 37 38 42 41 43 42 35 33 26 32 30 38 36 34 34 33 34 36 36 33 27 25 15 9 8 9 9 9 9 9 8 5 2 5 7 10 7 8 9 8 9 10
35 27 38 40 49 41 47 36 33 31 31 37 33 39 41 42 40 38 38 35 34 29 25 19 13 12 11 11 10 7 7 7 7 5 4 4 5 7 8 8 8 9 10 12
38 38 36 50 48 39 42 32 33 29 33 33 35 40 39 35 43 42 40 36 31 25 18 16 16 15 16 16 15 13 9 8 7 7 6 5 6 8 8 9 9 10 12 13
33 30 33 45 44 44 36 29 28 30 34 47 40 39 42 39 38 43 39 34 27 23 20 18 18 19 20 21 19 17 13 8 8 8 7 6 5 6 7 8 9 11 12 14
33 35 32 33 42 36 39 34 38 44 47 50 38 41 44 35 35 36 36 33 30 23 22 20 20 20 22 22 20 16 13 11 8 8 7 5 5 5 6 7 8 9 11 14
40 46 38 35 41 41 43 40 43 46 52 46 31 46 42 37 31 33 29 27 26 26 24 23 21 21 20 19 16 12 10 10 7 6 5 4 4 6 8 8 8 9 11 13
39 39 29 31 32 37 43 48 36 35 35 41 42 43 33 34 33 29 26 23 24 24 24 23 22 21 18 16 13 8 7 6 5 4 3 2 4 7 6 6 7 8 10 11
30 38 33 28 29 32 39 34 43 39 47 46 41 45 44 38 36 30 25 23 23 21 21 21 19 18 16 14 11 8 5 4 2 2 2 2 3 4 4 5 6 8 9 11
32 37 35 30 38 40 36 41 41 40 39 47 45 45 35 38 35 29 26 26 23 20 19 18 17 15 12 11 9 7 5 4 3 1 0 0 2 3 5 6 7 8 10 12
34 32 41 41 31 31 34 41 40 49 46 39 37 42 26 33 33 28 25 24 22 19 18 16 15 13 11 9 7 6 5 3 2 1 3 4 5 5 5 6 7 9 11 14
31 32 38 39 38 34 40 41 41 39 37 48 50 40 27 26 26 27 24 21 21 20 18 16 15 14 12 9 7 5 4 3 3 5 5 4 4 3 4 6 8 10 13 15
28 31 40 46 46 34 43 42 40 43 50 48 52 42 35 30 27 22 21 20 19 19 17 17 15 14 11 9 8 6 5 4 4 4 3 3 2 2 3 6 9 12 14 17
31 38 34 41 40 35 39 42 41 44 49 49 53 45 39 30 24 20 18 17 18 19 19 17 16 15 13 11 9 8 7 6 5 5 3 2 1 3 5 8 10 13 16 18
33 37 31 33 30 32 41 40 43 45 42 48 42 45 38 31 29 28 25 22 21 21 20 18 17 15 14 13 11 10 9 9 7 6 5 3 3 4 7 9 12 15 17 20
36 33 33 40 27 28 41 39 36 45 44 46 50 47 33 32 31 28 24 21 20 19 19 18 17 16 15 15 14 13 12 10 9 8 6 6 6 7 10 11 13 16 19 22
30 36 32 36 32 44 38 31 35 38 42 44 45 41 38 36 32 30 26 24 23 21 20 19 19 18 17 16 15 14 13 12 11 10 9 8 9 10 11 13 15 18 21 24
26 28 32 39 40 40 45 38 33 34 45 38 40 41 38 33 31 35 28 25 22 19 18 19 19 19 18 18 17 16 16 15 14 13 12 10 10 11 12 15 17 20 23 25
34 27 32 30 39 51 35 26 25 26 54 38 38 40 34 30 41 42 27 24 24 24 23 22 21 21 21 21 19 19 18 17 16 14 13 12 12 13 15 16 19 21 24 27
29 35 38 39 39 41 30 18 14 30 45 28 31 33 31 34 36 37 31 29 28 26 24 22 22 23 22 21 20 21 20 20 17 15 13 13 14 15 16 18 20 22 25 28
27 27 30 30 43 52 25 22 31 35 26 27 25 22 22 27 29 31 30 29 24 23 23 23 23 24 22 22 22 22 22 18 16 15 14 15 15 16 18 20 22 25 27 28
31 27 27 26 34 25 20 24 23 25 29 27 25 25 25 29 33 33 33 29 26 22 21 21 22 22 22 22 23 23 20 17 16 15 15 16 16 17 19 22 24 26 27 29
30 27 29 29 31 29 27 27 26 25 25 25 25 26 27 30 30 31 32 30 27 23 22 20 20 21 21 21 21 20 18 17 16 16 16 16 17 18 21 23 24 25 27 30
28 26 33 36 32 28 28 30 31 30 29 30 30 30 31 31 35 34 32 29 26 23 20 19 19 19 19 18 18 17 17 16 16 16 16 17 19 22 22 24 25 27 28 29
29 32 34 37 28 28 28 26 25 28 30 30 30 31 32 33 33 29 27 24 21 20 18 18 18 17 17 16 16 15 15 15 15 16 17 19 20 21 22 24 27 27 28 30
Wind_Direction
229 226 222 223 230 234 235 235 232 236 235 235 236 241 242 237 239 240 235 232 233 223 213 210 200 197 184 171 167 167 166 166 166 171 171 196 184 251 316 325 338 343 346 346
230 223 222 226 232 235 241 232 233 238 237 236 237 238 242 240 240 241 236 234 233 234 231 236 243 172 172 171 175 179 178 177 177 185 227 307 305 313 316 320 326 330 333 335
230 236 229 229 233 235 237 232 231 234 235 239 239 242 241 241 242 243 241 237 235 237 242 245 247 221 210 194 190 189 188 184 185 198 257 312 316 317 318 317 321 324 326 329
241 240 224 230 230 236 235 235 235 234 230 235 238 243 243 241 242 242 240 240 240 243 247 250 242 248 251 257 264 242 220 205 205 205 227 248 288 303 311 315 320 326 329 330
236 233 226 227 229 231 235 235 235 234 235 238 241 243 245 245 241 241 240 241 245 247 244 244 250 256 264 268 272 275 260 224 225 218 227 237 279 305 315 322 327 331 335 338
248 235 238 235 231 234 238 233 237 237 238 238 240 241 246 243 244 243 243 242 244 246 246 248 256 263 268 273 274 275 276 244 231 224 227 240 261 300 312 322 329 335 341 344
240 236 242 233 229 233 228 222 227 231 232 235 241 243 242 248 248 249 244 240 243 243 246 251 257 265 271 275 277 275 271 264 239 232 248 257 282 298 314 323 329 337 341 342
230 230 230 229 229 227 225 224 227 230 231 235 242 243 244 247 253 252 250 239 241 245 249 255 262 268 272 277 279 274 266 267 248 231 251 283 307 316 327 328 336 342 345 349
228 234 230 234 232 228 229 228 234 241 245 241 242 248 254 248 249 251 248 239 242 248 253 257 262 267 270 275 277 271 262 266 259 236 231 260 323 326 336 352 359 2 4 7
237 231 235 236 236 236 233 228 231 238 236 239 245 245 246 245 245 247 246 244 246 250 254 257 260 264 270 271 274 274 266 247 233 218 251 270 335 349 12 22 29 27 20 13
241 233 234 235 235 230 232 231 235 238 243 241 245 248 251 248 246 246 246 248 247 248 251 254 258 262 265 266 264 264 259 253 253 245 219 49 37 54 46 42 31 25 18 8
235 240 233 234 243 242 240 236 235 235 237 243 249 249 261 254 252 251 249 248 249 250 250 252 254 255 255 253 252 249 249 235 227 161 115 102 93 79 57 39 29 17 10 2
229 241 234 236 242 244 238 238 238 241 244 243 243 248 261 263 263 253 249 249 248 248 248 249 249 248 245 244 240 230 213 190 159 132 124 115 100 61 32 13 14 7 0 354
229 245 238 236 238 239 237 238 240 239 241 243 244 251 256 260 260 257 250 251 249 246 243 243 243 240 237 233 227 217 203 183 166 158 146 137 113 48 20 6 356 351 348 346
236 240 246 245 246 243 245 241 240 241 243 244 246 249 251 256 260 262 258 251 248 247 244 240 236 234 231 225 220 216 209 199 193 192 195 217 318 349 351 347 344 344 342 343
236 242 246 248 252 246 246 245 242 243 246 247 251 251 257 263 262 262 261 255 252 248 246 240 238 234 228 221 217 216 212 209 210 217 226 245 292 321 329 334 335 336 339 339
233 240 243 245 254 251 246 244 244 245 246 247 247 251 258 259 259 261 260 254 250 246 242 237 231 229 226 221 220 217 215 218 226 228 238 260 284 302 314 325 329 332 334 335
235 237 247 249 250 247 252 256 248 249 250 250 255 257 258 261 263 263 259 258 256 254 249 240 234 231 230 231 228 228 227 227 229 236 248 262 281 297 312 321 323 327 330 331
243 242 245 248 250 258 256 254 250 250 254 255 256 257 259 263 266 265 264 263 259 251 241 237 235 235 234 231 231 228 232 237 239 244 252 263 279 294 307 313 319 324 327 329
244 247 248 252 249 248 261 260 255 262 256 258 258 260 262 264 263 265 268 266 265 262 259 253 246 242 239 236 229 226 229 231 237 241 253 269 284 295 304 312 316 322 326 327
237 244 246 248 254 258 260 261 256 257 260 270 265 263 262 264 267 276 276 273 269 264 257 253 245 241 238 232 226 228 231 234 242 249 259 273 286 295 303 310 316 320 322 325
240 240 245 252 252 254 265 259 257 265 282 279 279 278 273 271 274 279 280 278 274 266 258 250 248 248 242 233 229 234 235 239 240 249 261 275 287 297 304 310 315 318 321 323
246 246 245 245 256 277 269 271 273 283 277 280 282 280 277 277 277 279 282 283 278 270 264 256 251 250 245 234 231 231 235 232 239 250 262 276 287 296 303 308 313 316 321 323
254 255 258 260 262 264 268 276 279 280 282 284 286 286 282 280 282 282 284 283 278 273 266 260 253 248 242 236 234 233 229 235 242 253 265 276 284 295 304 309 312 315 318 320
258 256 259 262 269 274 275 274 274 276 281 285 285 284 284 284 285 286 285 282 280 274 269 260 255 249 241 233 231 229 229 236 247 258 267 278 290 297 302 308 312 316 319 322
260 262 260 264 269 271 277 285 283 278 279 283 284 285 289 289 288 288 287 285 282 275 270 263 258 248 235 229 227 229 236 242 249 260 272 283 290 296 302 308 312 319 321 322